クリステンセン彗星

495P/Christensen (2015)

English version
Home page
Updated on November 26, 2024

---------------------------------------------------------------------

・ プロフィール

符号 495P/2016 A2
発見日 2016年1月2日
発見光度 19.6等
発見者 E. J. Christensen (Mount Lemmon)

・ 写真集

・ 軌道要素

                    Epoch = 2015 June 27.0 TT
     T = 2015 June 26.00242 TT        Peri. = 141.06082
     e = 0.2748442                    Node  = 291.81136 2000.0
     q = 3.4323713 AU                 Incl. =  26.37371
       a =  4.7332882 AU   n = 0.09571052   P =  10.30 years

・ 光度変化

        m1 = 12.0 + 5 logΔ + 10.0 log r

---------------------------------------------------------------------

軌道要素は、CBET 5463に掲載されたものです。
光度グラフはComet for Windowsで作成したものです。

---------------------------------------------------------------------

Copyright(C) Seiichi Yoshida (comet@aerith.net). All rights reserved.